Year,Month,Day,Hour,Minute,Value (Times are PST for temperature in C)
2008,08,31,00,00,10.70
2008,08,31,00,01,10.70
2008,08,31,00,02,10.70
2008,08,31,00,03,10.70
2008,08,31,00,04,10.70
2008,08,31,00,05,10.60
2008,08,31,00,06,10.60
2008,08,31,00,07,10.60
2008,08,31,00,08,10.60
2008,08,31,00,09,10.60
2008,08,31,00,10,10.60
2008,08,31,00,11,10.60
2008,08,31,00,12,10.60
2008,08,31,00,13,10.60
2008,08,31,00,14,10.70
2008,08,31,00,15,10.60
2008,08,31,00,16,10.60
2008,08,31,00,17,10.60
2008,08,31,00,18,10.60
2008,08,31,00,19,10.60
2008,08,31,00,20,10.60
2008,08,31,00,21,10.60
2008,08,31,00,22,10.60
2008,08,31,00,23,10.60
2008,08,31,00,24,10.60
2008,08,31,00,25,10.60
2008,08,31,00,26,10.60
2008,08,31,00,27,10.60
2008,08,31,00,28,10.60
2008,08,31,00,29,10.70
2008,08,31,00,30,10.70
2008,08,31,00,31,10.60
2008,08,31,00,32,10.60
2008,08,31,00,33,10.60
2008,08,31,00,34,10.60
2008,08,31,00,35,10.60
2008,08,31,00,36,10.60
2008,08,31,00,37,10.60
2008,08,31,00,38,10.70
2008,08,31,00,39,10.70
2008,08,31,00,40,10.70
2008,08,31,00,41,10.70
2008,08,31,00,42,10.70
2008,08,31,00,43,10.70
2008,08,31,00,44,10.70
2008,08,31,00,45,10.70
2008,08,31,00,46,10.70
2008,08,31,00,47,10.70
2008,08,31,00,48,10.70
2008,08,31,00,49,10.70
2008,08,31,00,50,10.70
2008,08,31,00,51,10.70
2008,08,31,00,52,10.70
2008,08,31,00,53,10.70
2008,08,31,00,54,10.70
2008,08,31,00,55,10.70
2008,08,31,00,56,10.70
2008,08,31,00,57,10.70
2008,08,31,00,58,10.70
2008,08,31,00,59,10.80
2008,08,31,01,00,10.80
2008,08,31,01,01,10.80
2008,08,31,01,02,10.80
2008,08,31,01,03,10.80
2008,08,31,01,04,10.80
2008,08,31,01,05,10.80
2008,08,31,01,06,10.80
2008,08,31,01,07,10.80
2008,08,31,01,08,10.80
2008,08,31,01,09,10.80
2008,08,31,01,10,10.80
2008,08,31,01,11,10.80
2008,08,31,01,12,10.80
2008,08,31,01,13,10.80
2008,08,31,01,14,10.80
2008,08,31,01,15,10.80
2008,08,31,01,16,10.80
2008,08,31,01,17,10.80
2008,08,31,01,18,10.80
2008,08,31,01,19,10.80
2008,08,31,01,20,10.80
2008,08,31,01,21,10.80
2008,08,31,01,22,10.80
2008,08,31,01,23,10.80
2008,08,31,01,24,10.80
2008,08,31,01,25,10.80
2008,08,31,01,26,10.80
2008,08,31,01,27,10.80
2008,08,31,01,28,10.80
2008,08,31,01,29,10.80
2008,08,31,01,30,10.80
2008,08,31,01,31,10.80
2008,08,31,01,32,10.80
2008,08,31,01,33,10.80
2008,08,31,01,34,10.80
2008,08,31,01,35,10.80
2008,08,31,01,36,10.80
2008,08,31,01,37,10.80
2008,08,31,01,38,10.80
2008,08,31,01,39,10.80
2008,08,31,01,40,10.80
2008,08,31,01,41,10.80
2008,08,31,01,42,10.80
2008,08,31,01,43,10.80
2008,08,31,01,44,10.80
2008,08,31,01,45,10.80
2008,08,31,01,46,10.80
2008,08,31,01,47,10.80
2008,08,31,01,48,10.80
2008,08,31,01,49,10.90
2008,08,31,01,50,10.90
2008,08,31,01,51,10.90
2008,08,31,01,52,10.90
2008,08,31,01,53,10.90
2008,08,31,01,54,10.90
2008,08,31,01,55,10.90
2008,08,31,01,56,10.90
2008,08,31,01,57,10.90
2008,08,31,01,58,10.90
2008,08,31,01,59,10.90
2008,08,31,02,00,10.90
2008,08,31,02,01,10.90
2008,08,31,02,02,10.90
2008,08,31,02,03,10.90
2008,08,31,02,04,10.90
2008,08,31,02,05,10.90
2008,08,31,02,06,10.90
2008,08,31,02,07,10.90
2008,08,31,02,08,10.90
2008,08,31,02,09,10.90
2008,08,31,02,10,10.80
2008,08,31,02,11,10.80
2008,08,31,02,12,10.80
2008,08,31,02,13,10.80
2008,08,31,02,14,10.80
2008,08,31,02,15,10.80
2008,08,31,02,16,10.80
2008,08,31,02,17,10.80
2008,08,31,02,18,10.80
2008,08,31,02,19,10.80
2008,08,31,02,20,10.80
2008,08,31,02,21,10.80
2008,08,31,02,22,10.80
2008,08,31,02,23,10.80
2008,08,31,02,24,10.80
2008,08,31,02,25,10.80
2008,08,31,02,26,10.80
2008,08,31,02,27,10.80
2008,08,31,02,28,10.70
2008,08,31,02,29,10.70
2008,08,31,02,30,10.70
2008,08,31,02,31,10.70
2008,08,31,02,32,10.70
2008,08,31,02,33,10.70
2008,08,31,02,34,10.70
2008,08,31,02,35,10.60
2008,08,31,02,36,10.60
2008,08,31,02,37,10.60
2008,08,31,02,38,10.60
2008,08,31,02,39,10.60
2008,08,31,02,40,10.60
2008,08,31,02,41,10.50
2008,08,31,02,42,10.50
2008,08,31,02,43,10.40
2008,08,31,02,44,10.40
2008,08,31,02,45,10.40
2008,08,31,02,46,10.40
2008,08,31,02,47,10.30
2008,08,31,02,48,10.30
2008,08,31,02,49,10.30
2008,08,31,02,50,10.30
2008,08,31,02,51,10.30
2008,08,31,02,52,10.30
2008,08,31,02,53,10.30
2008,08,31,02,54,10.20
2008,08,31,02,55,10.20
2008,08,31,02,56,10.20
2008,08,31,02,57,10.20
2008,08,31,02,58,10.20
2008,08,31,02,59,10.20
2008,08,31,03,00,10.20
2008,08,31,03,01,10.10
2008,08,31,03,02,10.10
2008,08,31,03,03,10.10
2008,08,31,03,04,10.10
2008,08,31,03,05,10.10
2008,08,31,03,06,10.00
2008,08,31,03,07,10.00
2008,08,31,03,08,9.90
2008,08,31,03,09,9.90
2008,08,31,03,10,9.90
2008,08,31,03,11,9.80
2008,08,31,03,12,9.80
2008,08,31,03,13,9.80
2008,08,31,03,14,9.80
2008,08,31,03,15,9.70
2008,08,31,03,16,9.70
2008,08,31,03,17,9.70
2008,08,31,03,18,9.60
2008,08,31,03,19,9.60
2008,08,31,03,20,9.60
2008,08,31,03,21,9.60
2008,08,31,03,22,9.60
2008,08,31,03,23,9.50
2008,08,31,03,24,9.50
2008,08,31,03,25,9.40
2008,08,31,03,26,9.40
2008,08,31,03,27,9.40
2008,08,31,03,28,9.40
2008,08,31,03,29,9.30
2008,08,31,03,30,9.30
2008,08,31,03,31,9.30
2008,08,31,03,32,9.30
2008,08,31,03,33,9.20
2008,08,31,03,34,9.20
2008,08,31,03,35,9.20
2008,08,31,03,36,9.20
2008,08,31,03,37,9.10
2008,08,31,03,38,9.10
2008,08,31,03,39,9.10
2008,08,31,03,40,9.10
2008,08,31,03,41,9.10
2008,08,31,03,42,9.00
2008,08,31,03,43,9.00
2008,08,31,03,44,9.00
2008,08,31,03,45,8.90
2008,08,31,03,46,8.90
2008,08,31,03,47,8.90
2008,08,31,03,48,8.90
2008,08,31,03,49,8.90
2008,08,31,03,50,8.90
2008,08,31,03,51,8.90
2008,08,31,03,52,8.90
2008,08,31,03,53,8.80
2008,08,31,03,54,8.80
2008,08,31,03,55,8.80
2008,08,31,03,56,8.80
2008,08,31,03,57,8.80
2008,08,31,03,58,8.70
2008,08,31,03,59,8.70
2008,08,31,04,00,8.70
2008,08,31,04,01,8.70
2008,08,31,04,02,8.60
2008,08,31,04,03,8.60
2008,08,31,04,04,8.60
2008,08,31,04,05,8.60
2008,08,31,04,06,8.60
2008,08,31,04,07,8.50
2008,08,31,04,08,8.50
2008,08,31,04,09,8.50
2008,08,31,04,10,8.50
2008,08,31,04,11,8.50
2008,08,31,04,12,8.40
2008,08,31,04,13,8.40
2008,08,31,04,14,8.40
2008,08,31,04,15,8.40
2008,08,31,04,16,8.40
2008,08,31,04,17,8.40
2008,08,31,04,18,8.40
2008,08,31,04,19,8.30
2008,08,31,04,20,8.30
2008,08,31,04,21,8.30
2008,08,31,04,22,8.30
2008,08,31,04,23,8.30
2008,08,31,04,24,8.30
2008,08,31,04,25,8.30
2008,08,31,04,26,8.30
2008,08,31,04,27,8.20
2008,08,31,04,28,8.20
2008,08,31,04,29,8.20
2008,08,31,04,30,8.20
2008,08,31,04,31,8.20
2008,08,31,04,32,8.20
2008,08,31,04,33,8.10
2008,08,31,04,34,8.10
2008,08,31,04,35,8.10
2008,08,31,04,36,8.10
2008,08,31,04,37,8.10
2008,08,31,04,38,8.10
2008,08,31,04,39,8.10
2008,08,31,04,40,8.10
2008,08,31,04,41,8.10
2008,08,31,04,42,8.10
2008,08,31,04,43,8.10
2008,08,31,04,44,8.10
2008,08,31,04,45,8.10
2008,08,31,04,46,8.00
2008,08,31,04,47,8.00
2008,08,31,04,48,8.00
2008,08,31,04,49,8.00
2008,08,31,04,50,8.00
2008,08,31,04,51,8.00
2008,08,31,04,52,8.00
2008,08,31,04,53,7.90
2008,08,31,04,54,7.90
2008,08,31,04,55,7.90
2008,08,31,04,56,7.90
2008,08,31,04,57,7.90
2008,08,31,04,58,7.90
2008,08,31,04,59,7.90
2008,08,31,05,00,7.80
2008,08,31,05,01,7.80
2008,08,31,05,02,7.80
2008,08,31,05,03,7.80
2008,08,31,05,04,7.80
2008,08,31,05,05,7.80
2008,08,31,05,06,7.80
2008,08,31,05,07,7.80
2008,08,31,05,08,7.80
2008,08,31,05,09,7.80
2008,08,31,05,10,7.80
2008,08,31,05,11,7.80
2008,08,31,05,12,7.80
2008,08,31,05,13,7.70
2008,08,31,05,14,7.70
2008,08,31,05,15,7.70
2008,08,31,05,16,7.70
2008,08,31,05,17,7.70
2008,08,31,05,18,7.70
2008,08,31,05,19,7.70
2008,08,31,05,20,7.70
2008,08,31,05,21,7.70
2008,08,31,05,22,7.70
2008,08,31,05,23,7.70
2008,08,31,05,24,7.70
2008,08,31,05,25,7.70
2008,08,31,05,26,7.60
2008,08,31,05,27,7.60
2008,08,31,05,28,7.60
2008,08,31,05,29,7.60
2008,08,31,05,30,7.50
2008,08,31,05,31,7.50
2008,08,31,05,32,7.50
2008,08,31,05,33,7.40
2008,08,31,05,34,7.50
2008,08,31,05,35,7.40
2008,08,31,05,36,7.40
2008,08,31,05,37,7.40
2008,08,31,05,38,7.40
2008,08,31,05,39,7.40
2008,08,31,05,40,7.40
2008,08,31,05,41,7.40
2008,08,31,05,42,7.50
2008,08,31,05,43,7.50
2008,08,31,05,44,7.40
2008,08,31,05,45,7.40
2008,08,31,05,46,7.40
2008,08,31,05,47,7.40
2008,08,31,05,48,7.40
2008,08,31,05,49,7.40
2008,08,31,05,50,7.40
2008,08,31,05,51,7.40
2008,08,31,05,52,7.30
2008,08,31,05,53,7.30
2008,08,31,05,54,7.30
2008,08,31,05,55,7.30
2008,08,31,05,56,7.30
2008,08,31,05,57,7.30
2008,08,31,05,58,7.30
2008,08,31,05,59,7.30
2008,08,31,06,00,7.30
2008,08,31,06,01,7.30
2008,08,31,06,02,7.30
2008,08,31,06,03,7.30
2008,08,31,06,04,7.30
2008,08,31,06,05,7.30
2008,08,31,06,06,7.30
2008,08,31,06,07,7.30
2008,08,31,06,08,7.30
2008,08,31,06,09,7.30
2008,08,31,06,10,7.30
2008,08,31,06,11,7.30
2008,08,31,06,12,7.20
2008,08,31,06,13,7.20
2008,08,31,06,14,7.20
2008,08,31,06,15,7.20
2008,08,31,06,16,7.20
2008,08,31,06,17,7.20
2008,08,31,06,18,7.20
2008,08,31,06,19,7.20
2008,08,31,06,20,7.20
2008,08,31,06,21,7.20
2008,08,31,06,22,7.20
2008,08,31,06,23,7.20
2008,08,31,06,24,7.20
2008,08,31,06,25,7.20
2008,08,31,06,26,7.10
2008,08,31,06,27,7.10
2008,08,31,06,28,7.10
2008,08,31,06,29,7.10
2008,08,31,06,30,7.10
2008,08,31,06,31,7.00
2008,08,31,06,32,7.00
2008,08,31,06,33,7.00
2008,08,31,06,34,6.90
2008,08,31,06,35,6.90
2008,08,31,06,36,6.90
2008,08,31,06,37,6.90
2008,08,31,06,38,6.90
2008,08,31,06,39,6.90
2008,08,31,06,40,6.90
2008,08,31,06,41,6.90
2008,08,31,06,42,6.90
2008,08,31,06,43,6.90
2008,08,31,06,44,6.90
2008,08,31,06,45,6.90
2008,08,31,06,46,6.90
2008,08,31,06,47,6.90
2008,08,31,06,48,6.90
2008,08,31,06,49,6.90
2008,08,31,06,50,6.90
2008,08,31,06,51,6.90
2008,08,31,06,52,6.90
2008,08,31,06,53,6.90
2008,08,31,06,54,6.90
2008,08,31,06,55,6.90
2008,08,31,06,56,6.90
2008,08,31,06,57,6.90
2008,08,31,06,58,6.90
2008,08,31,06,59,6.90
2008,08,31,07,00,6.90
2008,08,31,07,01,6.90
2008,08,31,07,02,6.90
2008,08,31,07,03,7.00
2008,08,31,07,04,7.00
2008,08,31,07,05,7.00
2008,08,31,07,06,7.10
2008,08,31,07,07,7.10
2008,08,31,07,08,7.10
2008,08,31,07,09,7.10
2008,08,31,07,10,7.10
2008,08,31,07,11,7.20
2008,08,31,07,12,7.20
2008,08,31,07,13,7.20
2008,08,31,07,14,7.20
2008,08,31,07,15,7.20
2008,08,31,07,16,7.20
2008,08,31,07,17,7.20
2008,08,31,07,18,7.20
2008,08,31,07,19,7.30
2008,08,31,07,20,7.30
2008,08,31,07,21,7.30
2008,08,31,07,22,7.30
2008,08,31,07,23,7.40
2008,08,31,07,24,7.40
2008,08,31,07,25,7.50
2008,08,31,07,26,7.50
2008,08,31,07,27,7.50
2008,08,31,07,28,7.60
2008,08,31,07,29,7.60
2008,08,31,07,30,7.70
2008,08,31,07,31,7.70
2008,08,31,07,32,7.70
2008,08,31,07,33,7.80
2008,08,31,07,34,7.80
2008,08,31,07,35,7.90
2008,08,31,07,36,7.90
2008,08,31,07,37,7.90
2008,08,31,07,38,8.00
2008,08,31,07,39,8.10
2008,08,31,07,40,8.10
2008,08,31,07,41,8.10
2008,08,31,07,42,8.20
2008,08,31,07,43,8.20
2008,08,31,07,44,8.20
2008,08,31,07,45,8.30
2008,08,31,07,46,8.30
2008,08,31,07,47,8.30
2008,08,31,07,48,8.40
2008,08,31,07,49,8.40
2008,08,31,07,50,8.50
2008,08,31,07,51,8.50
2008,08,31,07,52,8.60
2008,08,31,07,53,8.60
2008,08,31,07,54,8.70
2008,08,31,07,55,8.70
2008,08,31,07,56,8.70
2008,08,31,07,57,8.80
2008,08,31,07,58,8.80
2008,08,31,07,59,8.80
2008,08,31,08,00,8.90
2008,08,31,08,01,8.90
2008,08,31,08,02,8.90
2008,08,31,08,03,9.00
2008,08,31,08,04,9.00
2008,08,31,08,05,9.10
2008,08,31,08,06,9.10
2008,08,31,08,07,9.20
2008,08,31,08,08,9.20
2008,08,31,08,09,9.20
2008,08,31,08,10,9.30
2008,08,31,08,11,9.30
2008,08,31,08,12,9.30
2008,08,31,08,13,9.40
2008,08,31,08,14,9.40
2008,08,31,08,15,9.50
2008,08,31,08,16,9.60
2008,08,31,08,17,9.60
2008,08,31,08,18,9.60
2008,08,31,08,19,9.60
2008,08,31,08,20,9.70
2008,08,31,08,21,9.70
2008,08,31,08,22,9.80
2008,08,31,08,23,9.80
2008,08,31,08,24,9.90
2008,08,31,08,25,9.90
2008,08,31,08,26,10.00
2008,08,31,08,27,10.00
2008,08,31,08,28,10.10
2008,08,31,08,29,10.10
2008,08,31,08,30,10.20
2008,08,31,08,31,10.20
2008,08,31,08,32,10.30
2008,08,31,08,33,10.30
2008,08,31,08,34,10.30
2008,08,31,08,35,10.40
2008,08,31,08,36,10.50
2008,08,31,08,37,10.60
2008,08,31,08,38,10.60
2008,08,31,08,39,10.70
2008,08,31,08,40,10.80
2008,08,31,08,41,10.90
2008,08,31,08,42,11.00
2008,08,31,08,43,11.10
2008,08,31,08,44,11.10
2008,08,31,08,45,11.20
2008,08,31,08,46,11.30
2008,08,31,08,47,11.30
2008,08,31,08,48,11.40
2008,08,31,08,49,11.40
2008,08,31,08,50,11.50
2008,08,31,08,51,11.50
2008,08,31,08,52,11.60
2008,08,31,08,53,11.70
2008,08,31,08,54,11.70
2008,08,31,08,55,11.80
2008,08,31,08,56,11.90
2008,08,31,08,57,11.90
2008,08,31,08,58,12.00
2008,08,31,08,59,12.00
2008,08,31,09,00,12.10
2008,08,31,09,01,12.10
2008,08,31,09,02,12.20
2008,08,31,09,03,12.30
2008,08,31,09,04,12.30
2008,08,31,09,05,12.40
2008,08,31,09,06,12.40
2008,08,31,09,07,12.40
2008,08,31,09,08,12.50
2008,08,31,09,09,12.50
2008,08,31,09,10,12.60
2008,08,31,09,11,12.60
2008,08,31,09,12,12.60
2008,08,31,09,13,12.70
2008,08,31,09,14,12.70
2008,08,31,09,15,12.80
2008,08,31,09,16,12.80
2008,08,31,09,17,12.90
2008,08,31,09,18,12.90
2008,08,31,09,19,12.90
2008,08,31,09,20,13.00
2008,08,31,09,21,13.00
2008,08,31,09,22,13.00
2008,08,31,09,23,13.00
2008,08,31,09,24,13.00
2008,08,31,09,25,13.10
2008,08,31,09,26,13.10
2008,08,31,09,27,13.10
2008,08,31,09,28,13.10
2008,08,31,09,29,13.20
2008,08,31,09,30,13.20
2008,08,31,09,31,13.20
2008,08,31,09,32,13.30
2008,08,31,09,33,13.30
2008,08,31,09,34,13.30
2008,08,31,09,35,13.40
2008,08,31,09,36,13.40
2008,08,31,09,37,13.50
2008,08,31,09,38,13.50
2008,08,31,09,39,13.50
2008,08,31,09,40,13.50
2008,08,31,09,41,13.50
2008,08,31,09,42,13.50
2008,08,31,09,43,13.50
2008,08,31,09,44,13.50
2008,08,31,09,45,13.50
2008,08,31,09,46,13.50
2008,08,31,09,47,13.60
2008,08,31,09,48,13.60
2008,08,31,09,49,13.70
2008,08,31,09,50,13.80
2008,08,31,09,51,13.80
2008,08,31,09,52,13.90
2008,08,31,09,53,14.00
2008,08,31,09,54,14.10
2008,08,31,09,55,14.30
2008,08,31,09,56,14.40
2008,08,31,09,57,14.40
2008,08,31,09,58,14.50
2008,08,31,09,59,14.50
2008,08,31,10,00,14.50
2008,08,31,10,01,14.60
2008,08,31,10,02,14.60
2008,08,31,10,03,14.60
2008,08,31,10,04,14.70
2008,08,31,10,05,14.70
2008,08,31,10,06,14.80
2008,08,31,10,07,14.90
2008,08,31,10,08,15.00
2008,08,31,10,09,15.00
2008,08,31,10,10,15.00
2008,08,31,10,11,15.00
2008,08,31,10,12,15.10
2008,08,31,10,13,15.00
2008,08,31,10,14,15.00
2008,08,31,10,15,15.20
2008,08,31,10,16,15.30
2008,08,31,10,17,15.40
2008,08,31,10,18,15.50
2008,08,31,10,19,15.60
2008,08,31,10,20,15.70
2008,08,31,10,21,15.90
2008,08,31,10,22,15.90
2008,08,31,10,23,16.00
2008,08,31,10,24,16.00
2008,08,31,10,25,16.00
2008,08,31,10,26,16.00
2008,08,31,10,27,15.90
2008,08,31,10,28,15.80
2008,08,31,10,29,15.70
2008,08,31,10,30,15.60
2008,08,31,10,31,15.60
2008,08,31,10,32,15.60
2008,08,31,10,33,15.70
2008,08,31,10,34,15.80
2008,08,31,10,35,15.90
2008,08,31,10,36,16.00
2008,08,31,10,37,16.10
2008,08,31,10,38,16.20
2008,08,31,10,39,16.30
2008,08,31,10,40,16.30
2008,08,31,10,41,16.30
2008,08,31,10,42,16.20
2008,08,31,10,43,16.10
2008,08,31,10,44,15.90
2008,08,31,10,45,15.90
2008,08,31,10,46,15.90
2008,08,31,10,47,15.90
2008,08,31,10,48,15.90
2008,08,31,10,49,15.80
2008,08,31,10,50,15.90
2008,08,31,10,51,16.00
2008,08,31,10,52,16.00
2008,08,31,10,53,16.10
2008,08,31,10,54,16.10
2008,08,31,10,55,16.10
2008,08,31,10,56,16.20
2008,08,31,10,57,16.20
2008,08,31,10,58,16.20
2008,08,31,10,59,16.30
2008,08,31,11,00,16.30
2008,08,31,11,01,16.30
2008,08,31,11,02,16.30
2008,08,31,11,03,16.30
2008,08,31,11,04,16.30
2008,08,31,11,05,16.30
2008,08,31,11,06,16.20
2008,08,31,11,07,16.20
2008,08,31,11,08,16.10
2008,08,31,11,09,16.10
2008,08,31,11,10,16.10
2008,08,31,11,11,16.10
2008,08,31,11,12,16.20
2008,08,31,11,13,16.20
2008,08,31,11,14,16.10
2008,08,31,11,15,16.10
2008,08,31,11,16,16.20
2008,08,31,11,17,16.20
2008,08,31,11,18,16.20
2008,08,31,11,19,16.10
2008,08,31,11,20,16.00
2008,08,31,11,21,16.00
2008,08,31,11,22,16.00
2008,08,31,11,23,16.00
2008,08,31,11,24,16.00
2008,08,31,11,25,16.10
2008,08,31,11,26,16.00
2008,08,31,11,27,15.90
2008,08,31,11,28,15.70
2008,08,31,11,29,15.60
2008,08,31,11,30,15.40
2008,08,31,11,31,15.30
2008,08,31,11,32,15.20
2008,08,31,11,33,15.10
2008,08,31,11,34,15.00
2008,08,31,11,35,15.00
2008,08,31,11,36,15.00
2008,08,31,11,37,15.10
2008,08,31,11,38,15.20
2008,08,31,11,39,15.20
2008,08,31,11,40,15.30
2008,08,31,11,41,15.30
2008,08,31,11,42,15.40
2008,08,31,11,43,15.50
2008,08,31,11,44,15.60
2008,08,31,11,45,15.70
2008,08,31,11,46,15.80
2008,08,31,11,47,15.70
2008,08,31,11,48,15.70
2008,08,31,11,49,15.70
2008,08,31,11,50,15.80
2008,08,31,11,51,15.80
2008,08,31,11,52,15.80
2008,08,31,11,53,15.80
2008,08,31,11,54,15.80
2008,08,31,11,55,15.80
2008,08,31,11,56,15.80
2008,08,31,11,57,15.90
2008,08,31,11,58,15.90
2008,08,31,11,59,15.90
2008,08,31,12,00,15.90
2008,08,31,12,01,16.00
2008,08,31,12,02,15.90
2008,08,31,12,03,15.90
2008,08,31,12,04,15.90
2008,08,31,12,05,16.00
2008,08,31,12,06,16.00
2008,08,31,12,07,16.10
2008,08,31,12,08,16.20
2008,08,31,12,09,16.20
2008,08,31,12,10,16.20
2008,08,31,12,11,16.20
2008,08,31,12,12,16.20
2008,08,31,12,13,16.10
2008,08,31,12,14,16.00
2008,08,31,12,15,16.00
2008,08,31,12,16,16.00
2008,08,31,12,17,16.00
2008,08,31,12,18,16.00
2008,08,31,12,19,16.00
2008,08,31,12,20,16.10
2008,08,31,12,21,16.10
2008,08,31,12,22,16.20
2008,08,31,12,23,16.20
2008,08,31,12,24,16.20
2008,08,31,12,25,16.20
2008,08,31,12,26,16.30
2008,08,31,12,27,16.30
2008,08,31,12,28,16.30
2008,08,31,12,29,16.30
2008,08,31,12,30,16.20
2008,08,31,12,31,16.10
2008,08,31,12,32,16.10
2008,08,31,12,33,16.00
2008,08,31,12,34,15.90
2008,08,31,12,35,15.80
2008,08,31,12,36,15.60
2008,08,31,12,37,15.40
2008,08,31,12,38,15.20
2008,08,31,12,39,15.00
2008,08,31,12,40,15.00
2008,08,31,12,41,15.00
2008,08,31,12,42,14.80
2008,08,31,12,43,14.70
2008,08,31,12,44,14.70
2008,08,31,12,45,14.70
2008,08,31,12,46,14.70
2008,08,31,12,47,14.60
2008,08,31,12,48,14.60
2008,08,31,12,49,14.50
2008,08,31,12,50,14.60
2008,08,31,12,51,14.70
2008,08,31,12,52,14.90
2008,08,31,12,53,15.00
2008,08,31,12,54,15.00
2008,08,31,12,55,15.20
2008,08,31,12,56,15.30
2008,08,31,12,57,15.40
2008,08,31,12,58,15.50
2008,08,31,12,59,15.60
2008,08,31,13,00,15.70
2008,08,31,13,01,15.80
2008,08,31,13,02,15.90
2008,08,31,13,03,16.10
2008,08,31,13,04,16.10
2008,08,31,13,05,16.00
2008,08,31,13,06,16.00
2008,08,31,13,07,16.00
2008,08,31,13,08,16.00
2008,08,31,13,09,15.90
2008,08,31,13,10,15.80
2008,08,31,13,11,15.80
2008,08,31,13,12,15.80
2008,08,31,13,13,15.80
2008,08,31,13,14,15.90
2008,08,31,13,15,16.00
2008,08,31,13,16,16.00
2008,08,31,13,17,16.10
2008,08,31,13,18,16.20
2008,08,31,13,19,16.20
2008,08,31,13,20,16.30
2008,08,31,13,21,16.40
2008,08,31,13,22,16.30
2008,08,31,13,23,16.40
2008,08,31,13,24,16.40
2008,08,31,13,25,16.40
2008,08,31,13,26,16.30
2008,08,31,13,27,16.30
2008,08,31,13,28,16.30
2008,08,31,13,29,16.30
2008,08,31,13,30,16.20
2008,08,31,13,31,16.20
2008,08,31,13,32,16.30
2008,08,31,13,33,16.30
2008,08,31,13,34,16.30
2008,08,31,13,35,16.20
2008,08,31,13,36,16.10
2008,08,31,13,37,15.90
2008,08,31,13,38,15.80
2008,08,31,13,39,15.80
2008,08,31,13,40,15.90
2008,08,31,13,41,16.00
2008,08,31,13,42,16.10
2008,08,31,13,43,16.10
2008,08,31,13,44,16.00
2008,08,31,13,45,16.10
2008,08,31,13,46,16.20
2008,08,31,13,47,16.30
2008,08,31,13,48,16.20
2008,08,31,13,49,16.20
2008,08,31,13,50,16.10
2008,08,31,13,51,16.20
2008,08,31,13,52,16.20
2008,08,31,13,53,16.10
2008,08,31,13,54,16.00
2008,08,31,13,55,15.90
2008,08,31,13,56,16.00
2008,08,31,13,57,16.10
2008,08,31,13,58,16.30
2008,08,31,13,59,16.40
2008,08,31,14,00,16.50
2008,08,31,14,01,16.60
2008,08,31,14,02,16.70
2008,08,31,14,03,16.60
2008,08,31,14,04,16.60
2008,08,31,14,05,16.50
2008,08,31,14,06,16.60
2008,08,31,14,07,16.60
2008,08,31,14,08,16.60
2008,08,31,14,09,16.60
2008,08,31,14,10,16.60
2008,08,31,14,11,16.70
2008,08,31,14,12,16.70
2008,08,31,14,13,16.60
2008,08,31,14,14,16.60
2008,08,31,14,15,16.60
2008,08,31,14,16,16.70
2008,08,31,14,17,16.70
2008,08,31,14,18,16.70
2008,08,31,14,19,16.60
2008,08,31,14,20,16.50
2008,08,31,14,21,16.40
2008,08,31,14,22,16.40
2008,08,31,14,23,16.50
2008,08,31,14,24,16.60
2008,08,31,14,25,16.70
2008,08,31,14,26,16.70
2008,08,31,14,27,16.60
2008,08,31,14,28,16.50
2008,08,31,14,29,16.40
2008,08,31,14,30,16.20
2008,08,31,14,31,16.20
2008,08,31,14,32,16.20
2008,08,31,14,33,16.20
2008,08,31,14,34,16.20
2008,08,31,14,35,16.30
2008,08,31,14,36,16.30
2008,08,31,14,37,16.40
2008,08,31,14,38,16.40
2008,08,31,14,39,16.50
2008,08,31,14,40,16.60
2008,08,31,14,41,16.70
2008,08,31,14,42,16.70
2008,08,31,14,43,16.70
2008,08,31,14,44,16.70
2008,08,31,14,45,16.70
2008,08,31,14,46,16.70
2008,08,31,14,47,16.60
2008,08,31,14,48,16.50
2008,08,31,14,49,16.50
2008,08,31,14,50,16.50
2008,08,31,14,51,16.60
2008,08,31,14,52,16.60
2008,08,31,14,53,16.40
2008,08,31,14,54,16.20
2008,08,31,14,55,16.10
2008,08,31,14,56,16.00
2008,08,31,14,57,16.00
2008,08,31,14,58,16.10
2008,08,31,14,59,16.10
2008,08,31,15,00,16.00
2008,08,31,15,01,16.00
2008,08,31,15,02,16.00
2008,08,31,15,03,16.10
2008,08,31,15,04,16.20
2008,08,31,15,05,16.30
2008,08,31,15,06,16.30
2008,08,31,15,07,16.30
2008,08,31,15,08,16.40
2008,08,31,15,09,16.30
2008,08,31,15,10,16.30
2008,08,31,15,11,16.30
2008,08,31,15,12,16.30
2008,08,31,15,13,16.30
2008,08,31,15,14,16.30
2008,08,31,15,15,16.40
2008,08,31,15,16,16.40
2008,08,31,15,17,16.50
2008,08,31,15,18,16.50
2008,08,31,15,19,16.50
2008,08,31,15,20,16.50
2008,08,31,15,21,16.40
2008,08,31,15,22,16.40
2008,08,31,15,23,16.30
2008,08,31,15,24,16.20
2008,08,31,15,25,16.20
2008,08,31,15,26,16.30
2008,08,31,15,27,16.30
2008,08,31,15,28,16.20
2008,08,31,15,29,16.10
2008,08,31,15,30,16.10
2008,08,31,15,31,16.10
2008,08,31,15,32,16.10
2008,08,31,15,33,16.10
2008,08,31,15,34,16.10
2008,08,31,15,35,16.10
2008,08,31,15,36,16.10
2008,08,31,15,37,16.00
2008,08,31,15,38,16.00
2008,08,31,15,39,16.00
2008,08,31,15,40,16.10
2008,08,31,15,41,16.00
2008,08,31,15,42,15.80
2008,08,31,15,43,15.90
2008,08,31,15,44,15.90
2008,08,31,15,45,15.90
2008,08,31,15,46,16.00
2008,08,31,15,47,16.10
2008,08,31,15,48,16.20
2008,08,31,15,49,16.20
2008,08,31,15,50,16.30
2008,08,31,15,51,16.30
2008,08,31,15,52,16.40
2008,08,31,15,53,16.40
2008,08,31,15,54,16.50
2008,08,31,15,55,16.60
2008,08,31,15,56,16.70
2008,08,31,15,57,16.80
2008,08,31,15,58,16.70
2008,08,31,15,59,16.60
2008,08,31,16,00,16.60
2008,08,31,16,01,16.50
2008,08,31,16,02,16.40
2008,08,31,16,03,16.50
2008,08,31,16,04,16.50
2008,08,31,16,05,16.60
2008,08,31,16,06,16.80
2008,08,31,16,07,16.90
2008,08,31,16,08,17.10
2008,08,31,16,09,17.10
2008,08,31,16,10,17.10
2008,08,31,16,11,16.90
2008,08,31,16,12,16.80
2008,08,31,16,13,16.70
2008,08,31,16,14,16.60
2008,08,31,16,15,16.50
2008,08,31,16,16,16.30
2008,08,31,16,17,16.30
2008,08,31,16,18,16.20
2008,08,31,16,19,16.10
2008,08,31,16,20,16.00
2008,08,31,16,21,15.90
2008,08,31,16,22,15.90
2008,08,31,16,23,15.90
2008,08,31,16,24,15.90
2008,08,31,16,25,15.90
2008,08,31,16,26,15.90
2008,08,31,16,27,16.00
2008,08,31,16,28,16.10
2008,08,31,16,29,16.20
2008,08,31,16,30,16.20
2008,08,31,16,31,16.30
2008,08,31,16,32,16.30
2008,08,31,16,33,16.30
2008,08,31,16,34,16.40
2008,08,31,16,35,16.40
2008,08,31,16,36,16.40
2008,08,31,16,37,16.50
2008,08,31,16,38,16.50
2008,08,31,16,39,16.60
2008,08,31,16,40,16.60
2008,08,31,16,41,16.60
2008,08,31,16,42,16.70
2008,08,31,16,43,16.60
2008,08,31,16,44,16.60
2008,08,31,16,45,16.60
2008,08,31,16,46,16.60
2008,08,31,16,47,16.60
2008,08,31,16,48,16.60
2008,08,31,16,49,16.60
2008,08,31,16,50,16.60
2008,08,31,16,51,16.70
2008,08,31,16,52,16.70
2008,08,31,16,53,16.70
2008,08,31,16,54,16.70
2008,08,31,16,55,16.80
2008,08,31,16,56,16.80
2008,08,31,16,57,16.80
2008,08,31,16,58,16.80
2008,08,31,16,59,16.80
2008,08,31,17,00,16.90
2008,08,31,17,01,16.90
2008,08,31,17,02,17.00
2008,08,31,17,03,17.10
2008,08,31,17,04,17.20
2008,08,31,17,05,17.30
2008,08,31,17,06,17.40
2008,08,31,17,07,17.50
2008,08,31,17,08,17.60
2008,08,31,17,09,17.70
2008,08,31,17,10,17.80
2008,08,31,17,11,18.00
2008,08,31,17,12,18.10
2008,08,31,17,13,18.10
2008,08,31,17,14,18.20
2008,08,31,17,15,18.20
2008,08,31,17,16,18.20
2008,08,31,17,17,18.10
2008,08,31,17,18,18.00
2008,08,31,17,19,18.00
2008,08,31,17,20,17.90
2008,08,31,17,21,17.90
2008,08,31,17,22,17.90
2008,08,31,17,23,17.80
2008,08,31,17,24,17.80
2008,08,31,17,25,17.80
2008,08,31,17,26,17.80
2008,08,31,17,27,17.90
2008,08,31,17,28,17.90
2008,08,31,17,29,17.90
2008,08,31,17,30,17.90
2008,08,31,17,31,17.90
2008,08,31,17,32,17.90
2008,08,31,17,33,17.90